GFSWCAN_700_rhum_090.txt.gz
RH
100 99 77 13 6 7 7 8 8 7 6 6 5 4 4 4 2 3 8 17 19 32 42 42 46 50 45 34 42 51 94 97 96 98 95 95 94 94 83 91 90 88 83 84 78 72 71 85 83 80 89 82 82 74
100 99 24 6 6 8 8 9 9 8 8 6 6 5 4 4 2 3 6 14 28 39 51 53 62 63 58 53 36 50 84 97 95 97 99 97 90 94 89 88 93 87 92 86 84 81 77 85 80 94 93 86 82 88
100 99 61 13 7 11 8 11 10 10 9 7 6 6 5 4 3 3 6 23 32 35 40 61 56 46 51 59 44 44 52 95 95 96 99 100 100 96 91 87 89 92 89 84 82 82 79 93 96 97 98 98 92 91
100 99 49 8 26 9 10 13 12 12 9 7 7 6 5 4 3 3 6 30 35 40 33 42 54 60 67 52 39 36 48 70 99 100 99 98 96 96 95 92 85 83 83 86 78 83 77 86 95 99 100 99 97 96
100 98 28 30 28 8 12 14 14 13 11 9 8 7 6 5 3 3 6 30 35 44 43 52 64 85 92 40 38 34 40 46 87 100 100 98 97 100 94 84 79 81 78 80 82 84 88 84 82 86 86 84 87 92
99 99 43 39 25 9 14 15 15 15 13 10 10 9 7 5 4 3 5 24 38 42 45 56 72 91 91 44 35 31 33 40 45 76 100 99 100 98 95 84 81 83 83 80 77 77 88 96 93 93 93 94 94 85
99 96 65 40 8 11 17 14 16 18 16 14 12 11 9 6 4 4 6 24 41 43 45 58 70 86 89 78 49 38 38 38 45 55 97 95 95 97 90 73 73 78 77 77 81 81 78 80 86 90 88 84 82 77
99 91 48 23 9 15 17 16 18 18 21 20 13 11 9 8 5 4 6 24 44 43 42 48 56 67 69 84 72 78 52 45 46 60 86 89 85 96 91 68 70 75 74 77 83 81 79 76 76 78 80 84 84 80
94 44 44 16 12 18 25 19 20 24 31 23 16 12 11 10 7 5 6 20 42 53 47 44 39 45 56 63 82 99 86 92 78 99 94 85 75 72 62 67 72 75 76 76 78 80 80 80 80 83 88 87 90 94
44 56 31 12 16 20 28 21 25 28 37 24 21 12 12 12 8 6 15 26 50 57 60 48 38 34 38 59 88 100 100 100 100 93 89 88 44 46 56 57 63 68 72 72 74 74 76 75 84 90 98 100 100 100
81 50 14 16 19 30 35 24 29 40 37 26 24 14 13 13 8 10 25 35 47 52 58 42 24 26 39 60 86 93 99 100 97 97 98 98 65 60 61 61 62 62 65 67 67 67 74 88 98 100 100 100 100 100
62 18 16 18 32 44 26 32 39 49 33 28 27 15 12 12 7 14 26 33 37 48 31 23 25 31 33 70 88 97 96 96 96 100 93 89 70 62 62 62 63 62 63 71 76 77 76 88 91 98 100 100 100 100
36 17 17 36 46 34 33 38 51 49 37 32 32 16 13 9 10 10 15 30 26 23 28 30 29 39 45 63 85 94 97 92 97 98 94 83 78 80 78 68 65 76 76 77 77 78 78 83 84 86 95 100 100 99
18 20 37 51 41 35 40 48 57 45 40 38 28 12 11 9 7 8 13 22 25 24 41 38 29 43 47 57 89 95 95 97 98 99 94 83 85 85 78 81 81 87 86 80 78 78 84 90 93 92 92 91 88 84
41 33 50 51 46 47 47 57 54 43 46 38 21 11 10 8 7 10 16 24 23 27 43 39 30 37 48 76 100 95 97 96 97 98 99 98 98 95 99 100 97 95 94 89 87 93 98 94 92 90 86 78 69 65
30 56 63 65 64 54 59 70 60 46 51 39 20 12 11 10 11 12 16 22 20 23 41 44 40 49 78 98 98 96 97 96 97 96 97 97 96 96 96 96 97 98 97 96 94 100 98 92 79 64 32 17 12 16
67 70 65 65 66 63 73 65 51 59 47 32 15 12 11 11 11 13 18 22 21 27 49 56 56 58 68 87 98 95 94 95 95 96 96 98 98 96 96 96 98 97 97 97 97 97 96 87 62 45 19 19 20 17
72 61 61 59 72 87 79 60 64 57 31 23 11 10 11 11 14 20 22 24 37 46 46 55 54 46 47 48 46 61 68 74 95 95 95 96 97 96 96 98 98 97 96 96 97 96 96 82 58 46 25 25 24 22
56 58 71 86 90 83 69 68 64 33 18 9 8 10 13 17 23 26 31 38 40 43 43 50 54 39 41 41 40 44 58 73 79 94 92 95 97 96 96 96 96 96 96 96 96 96 96 78 63 49 34 26 26 26
80 86 90 88 82 74 76 47 30 10 9 12 13 17 20 28 34 44 49 50 50 46 33 27 20 28 34 41 56 67 72 72 68 73 93 93 95 95 96 96 96 96 96 96 96 96 96 78 63 38 30 28 27 25
92 92 84 77 82 67 22 8 7 10 12 15 18 26 32 41 48 55 55 60 58 36 21 19 24 40 52 72 83 81 70 67 72 70 72 88 89 92 95 96 96 96 96 96 96 96 96 92 40 24 26 27 27 24
87 82 79 62 23 9 7 8 10 14 18 23 25 28 32 40 50 54 59 57 49 34 19 26 47 71 81 62 59 63 64 63 65 75 70 55 56 51 64 90 95 95 95 94 94 86 38 25 23 25 27 28 25 25
74 58 37 14 9 9 15 14 15 16 20 24 24 32 55 70 65 58 53 46 39 45 22 52 39 11 10 12 18 40 60 56 58 75 78 59 56 55 57 60 64 72 75 48 37 32 26 26 26 28 28 28 33 34
35 13 11 10 10 14 12 16 21 24 32 39 52 56 59 57 55 57 57 40 42 44 22 38 12 12 14 14 13 14 27 64 78 54 70 72 65 62 59 57 54 54 59 58 37 27 29 30 29 32 40 46 52 54
17 17 15 17 16 17 20 22 27 37 51 64 60 52 57 75 81 76 54 41 50 29 33 35 12 13 13 13 14 14 14 13 22 82 83 54 49 55 52 44 38 41 35 31 32 29 31 42 61 71 70 66 62 59
17 20 20 20 26 27 35 41 52 57 60 69 77 72 71 89 74 61 54 58 38 29 22 39 35 12 16 27 33 27 17 14 15 13 14 46 79 58 36 30 29 30 29 30 38 66 81 81 74 67 62 59 59 58
28 28 29 28 35 41 48 56 62 70 77 78 70 78 96 94 70 67 47 35 31 18 14 45 49 27 30 31 46 51 43 32 18 17 16 12 10 17 58 65 54 52 61 81 90 84 75 70 67 65 64 61 60 48
43 45 50 52 54 51 56 57 66 70 71 68 64 80 83 80 73 51 44 39 41 48 52 58 58 61 41 33 40 52 50 47 35 23 18 17 12 10 10 14 56 79 89 92 87 80 76 75 73 70 67 65 48 32
52 57 61 63 68 66 60 48 44 44 46 64 77 79 80 78 74 67 70 70 45 66 67 47 45 49 43 43 47 52 49 46 41 33 24 20 16 13 10 9 9 19 50 65 71 80 81 82 85 84 76 49 39 38
65 73 68 61 52 51 59 76 80 87 86 84 81 75 69 62 68 77 66 58 54 59 61 65 64 61 55 52 46 44 39 36 36 33 28 22 16 13 10 8 8 8 11 44 68 67 73 86 89 76 47 47 45 43
69 70 66 56 55 60 76 82 76 74 72 67 65 59 48 46 48 58 60 55 51 48 44 42 37 34 32 30 28 28 24 22 22 22 20 17 14 11 10 9 8 7 9 12 27 52 81 94 94 58 52 52 51 51
49 48 54 61 67 72 72 67 63 45 34 36 37 34 32 29 24 24 23 26 25 24 22 21 22 24 26 26 25 23 20 17 16 16 14 14 14 12 11 10 8 8 10 26 43 82 95 96 75 57 57 58 59 61
70 74 73 71 68 63 46 31 24 19 17 18 19 18 15 17 22 31 48 52 53 48 44 33 28 29 27 22 20 18 18 17 14 18 20 19 17 15 13 11 10 18 52 79 94 97 95 71 61 61 61 64 65 66

GFSWCAN_700_rhum_093.txt.gz
RH
99 100 100 100 89 41 28 9 7 7 7 7 7 5 4 5 3 2 5 15 20 19 26 33 47 53 52 49 44 43 96 93 94 97 100 100 100 97 83 92 91 90 87 86 79 73 73 92 90 84 94 87 73 69
100 100 100 100 99 94 13 14 8 8 8 9 7 6 5 5 4 2 3 11 19 22 26 35 32 28 23 29 44 39 82 94 95 96 99 100 100 99 92 92 97 92 94 89 87 82 76 85 87 100 94 89 90 90
100 100 99 100 100 60 36 10 9 9 9 9 8 6 6 6 4 3 3 8 18 26 36 43 49 50 31 30 42 35 49 89 96 94 99 100 98 97 95 87 86 93 93 88 81 81 79 85 90 90 96 84 90 98
100 100 99 99 100 66 25 12 20 10 11 10 9 7 6 6 5 4 3 6 14 28 36 49 53 53 25 24 24 28 37 52 91 97 97 99 100 100 94 90 82 84 81 84 84 84 81 88 96 91 96 96 96 96
99 100 100 100 96 39 11 22 15 11 12 11 11 8 7 7 6 5 3 6 9 26 33 45 52 58 50 26 25 25 30 40 51 93 94 98 99 99 93 80 82 83 80 77 84 86 87 87 96 95 94 92 90 92
100 100 100 99 77 33 13 31 14 13 12 13 12 10 9 8 8 6 4 6 7 24 30 41 51 59 60 54 32 28 28 31 42 46 84 95 98 100 99 80 80 85 85 84 83 80 87 93 92 90 91 90 94 98
93 98 99 99 76 37 36 34 14 14 14 15 14 13 14 9 9 7 5 4 7 23 32 37 43 50 51 59 61 54 40 35 34 42 45 66 89 97 91 76 74 76 78 80 82 85 83 84 92 97 98 95 93 92
100 100 100 99 91 44 55 19 16 16 16 18 17 15 21 12 11 9 6 4 6 20 33 37 37 34 33 37 49 58 66 56 46 47 48 76 98 98 88 70 71 72 75 74 78 86 86 82 79 78 81 82 84 88
100 100 99 99 82 68 28 19 19 18 19 20 22 27 23 13 12 12 8 6 8 20 34 42 41 31 28 29 45 72 80 88 88 85 82 82 95 93 73 72 71 74 80 81 82 80 81 82 82 83 84 86 92 95
99 100 100 98 92 60 20 34 22 20 23 29 33 38 21 15 13 13 9 8 15 18 33 44 30 13 16 24 62 86 96 96 96 95 100 100 87 51 56 66 70 73 73 82 84 76 75 76 79 82 91 98 100 100
100 100 99 98 91 31 29 36 21 32 26 42 49 43 22 17 15 13 7 12 17 22 36 22 11 14 19 23 54 88 90 95 97 95 98 99 100 89 84 85 82 77 72 71 74 72 75 78 80 95 100 100 100 100
99 99 99 95 42 26 37 26 32 30 40 52 58 36 25 21 16 7 10 12 13 22 16 12 16 16 17 26 55 92 93 96 93 97 97 100 95 95 89 88 85 85 79 72 74 76 75 77 83 88 90 97 99 100
99 98 94 65 32 36 42 31 29 46 55 59 52 36 30 20 11 7 8 11 13 12 13 13 23 21 20 39 47 91 98 86 97 98 97 100 100 98 98 98 90 90 91 86 80 79 76 78 83 86 90 90 86 76
98 96 92 46 27 41 28 41 47 62 68 67 58 36 23 14 10 8 8 9 12 13 13 14 21 20 19 32 54 87 91 97 97 96 99 100 99 100 100 98 98 100 100 94 86 84 85 89 90 91 92 92 90 88
96 94 44 27 38 40 53 56 75 71 79 59 50 30 19 16 10 7 9 10 10 11 11 12 17 22 20 46 78 95 96 98 97 96 97 98 94 96 96 97 97 98 98 99 97 95 96 93 92 90 72 51 21 13
94 62 31 40 61 71 69 85 75 86 87 54 52 26 15 12 10 11 12 10 10 12 14 16 27 28 48 80 93 90 97 95 89 91 94 95 94 92 90 95 96 96 97 97 97 98 96 95 96 74 53 21 18 17
84 46 54 83 77 80 90 90 92 94 61 50 51 53 40 25 15 13 11 10 11 14 18 27 33 35 60 71 76 87 87 65 49 52 68 84 90 94 94 96 96 96 96 96 97 97 97 96 94 65 49 26 24 24
54 76 94 92 94 95 95 93 94 87 58 55 51 34 17 12 11 12 12 12 14 16 22 37 40 42 36 46 40 32 45 46 33 32 54 80 84 96 95 94 96 96 96 96 96 96 97 96 96 66 54 39 28 26
91 94 95 94 96 96 94 94 91 69 61 58 39 16 9 10 11 13 15 16 19 25 29 30 31 29 27 29 38 35 29 26 27 33 51 66 84 86 98 95 96 96 96 96 96 96 96 96 96 84 58 40 30 27
96 94 96 95 94 94 93 89 74 61 54 36 20 10 10 14 17 18 21 25 30 33 38 28 23 22 21 20 21 24 38 58 60 54 60 70 73 91 94 96 95 96 96 96 96 96 96 96 96 95 79 30 26 26
94 92 94 95 94 93 90 75 57 31 18 14 16 17 19 19 22 27 32 37 39 36 28 34 35 20 19 30 44 70 78 70 64 63 62 61 75 89 88 95 96 96 96 96 96 96 96 95 95 95 69 25 26 26
95 95 95 93 90 86 85 53 15 12 13 14 18 20 20 20 24 28 30 36 40 35 36 41 29 17 28 57 62 39 27 40 57 66 64 67 76 74 65 63 94 96 96 96 95 95 91 87 78 46 31 29 27 27
94 92 89 88 79 57 24 21 13 12 15 16 16 17 18 21 31 33 42 39 34 36 49 50 41 32 34 13 11 14 18 34 52 72 78 67 84 75 65 65 74 92 95 95 94 95 90 44 34 33 30 28 33 42
88 79 63 54 36 12 14 14 15 17 18 18 20 24 30 35 44 54 48 29 40 56 63 60 33 27 13 14 15 16 17 16 20 37 81 92 74 72 67 64 74 89 75 83 78 66 42 38 30 31 43 57 67 67
64 48 25 14 12 12 13 16 18 19 21 22 29 41 50 55 62 60 47 45 54 61 53 41 43 17 13 13 15 19 18 18 18 18 18 34 90 92 69 71 67 49 44 45 43 40 32 50 78 82 77 69 63 60
20 22 19 15 15 15 17 20 23 26 32 35 42 51 58 69 68 51 59 58 52 42 38 29 39 18 14 20 38 48 53 54 46 28 22 18 15 19 69 94 84 55 34 31 34 63 89 85 72 70 71 71 68 64
15 15 16 18 20 22 25 28 32 37 44 56 62 59 66 74 63 59 57 52 46 43 35 21 29 32 26 23 35 33 40 57 58 53 47 29 22 17 14 14 36 76 90 88 91 94 87 81 79 78 74 70 68 65
25 26 30 32 33 36 40 41 42 44 52 61 68 53 47 47 50 60 62 57 56 45 58 64 56 58 54 53 59 35 35 43 50 51 45 46 34 23 19 15 12 12 20 62 92 94 84 72 76 75 77 82 79 64
43 44 44 49 51 54 54 53 50 45 43 47 45 44 48 48 53 60 68 67 58 53 57 51 59 67 72 69 50 36 42 48 47 44 40 35 38 32 23 16 12 10 9 10 15 32 47 73 73 71 88 85 60 46
56 60 61 58 56 52 50 58 68 74 68 68 65 61 60 55 60 61 54 58 59 51 46 48 56 49 44 51 50 55 56 51 46 38 33 27 27 27 22 15 11 9 8 7 7 9 24 36 43 75 92 80 53 52
59 62 58 54 47 55 62 58 58 62 62 60 53 33 20 19 14 16 16 18 31 49 53 54 56 54 56 57 58 55 51 40 32 27 23 20 18 16 13 11 11 10 9 8 8 12 22 35 73 93 92 65 58 58
48 41 37 42 49 60 58 55 47 36 30 23 15 14 15 16 13 14 15 20 26 26 30 31 33 36 37 38 36 37 35 32 29 26 24 19 18 18 17 15 13 12 11 10 17 44 79 94 96 94 66 62 65 67
51 64 63 57 46 26 17 13 14 13 16 30 38 46 49 52 47 51 59 66 65 53 48 44 42 40 33 26 23 21 22 25 24 22 21 21 18 16 16 16 16 15 13 12 23 63 93 96 91 68 65 68 70 69

GFSWCAN_700_rhum_096.txt.gz
RH
100 99 100 97 100 100 99 54 34 54 7 7 6 7 5 5 4 2 3 5 10 14 21 24 15 12 16 36 35 35 79 83 87 84 100 99 100 98 89 95 93 95 92 92 80 78 77 87 96 91 94 89 72 76
100 98 96 100 100 100 100 95 93 18 7 7 7 7 5 5 5 3 3 3 10 12 22 25 20 11 13 19 30 29 70 81 80 80 92 99 98 96 92 92 94 97 96 93 89 91 87 93 94 92 92 93 86 90
100 100 98 100 100 100 100 99 49 15 7 8 8 7 6 6 6 4 3 3 7 10 21 29 34 21 14 19 29 28 46 80 82 82 89 95 95 98 99 96 87 89 92 90 83 85 88 98 98 94 91 90 95 94
100 96 100 100 99 100 99 92 35 20 8 9 9 7 6 6 6 6 4 3 4 13 21 28 35 43 28 19 19 22 28 41 70 82 82 85 97 95 94 84 76 78 80 84 84 86 85 96 99 92 94 91 92 98
100 96 99 100 99 99 99 85 35 19 9 10 10 8 8 8 7 6 5 4 4 8 14 24 31 37 46 42 24 23 23 27 35 60 79 84 86 94 87 82 79 81 83 80 88 86 85 92 100 99 99 99 94 90
98 99 100 99 100 100 99 65 45 10 10 11 10 10 10 11 9 8 6 5 4 7 10 20 22 31 32 37 48 47 34 29 28 40 46 71 88 87 98 90 79 85 85 87 84 81 82 89 90 90 90 90 88 89
100 98 99 99 100 100 99 87 17 11 11 12 11 11 12 21 23 9 8 6 4 6 9 20 25 27 27 24 29 48 53 55 41 34 34 43 57 85 99 81 74 83 86 88 86 85 81 83 91 97 98 99 99 98
100 99 99 99 100 100 99 41 13 12 19 24 12 13 18 33 34 10 10 8 4 7 9 14 19 19 12 12 22 39 56 62 63 57 48 45 56 85 90 81 89 87 86 82 86 88 91 92 87 82 79 81 85 86
100 98 99 99 100 99 90 38 25 36 36 14 13 17 26 44 42 13 12 10 6 8 11 11 7 7 8 12 22 41 59 72 74 74 80 78 84 98 93 90 95 92 92 93 97 100 100 94 86 81 81 83 83 86
90 98 99 99 100 99 74 39 39 50 16 17 18 23 31 51 48 14 12 11 6 7 10 9 5 7 8 9 20 57 76 84 100 82 96 96 87 98 92 77 84 84 86 86 94 98 100 98 93 92 89 91 98 100
100 99 99 99 99 98 78 58 63 27 34 20 25 35 41 60 38 16 14 7 9 10 11 7 6 5 8 8 16 54 76 86 97 96 99 95 100 95 93 98 89 86 81 78 73 78 77 83 88 94 99 100 100 100
99 100 99 99 100 99 82 77 45 49 36 26 34 45 49 64 34 21 10 9 8 10 9 7 6 5 7 9 18 53 81 88 90 97 99 95 94 93 95 97 97 92 90 89 90 86 88 84 83 85 87 87 91 90
99 99 99 99 99 99 94 59 61 45 25 43 52 54 68 57 33 15 8 8 8 8 8 6 6 6 9 14 18 43 88 86 94 98 97 100 97 94 97 96 96 99 96 97 94 88 86 84 83 85 89 89 87 83
99 99 99 99 98 96 63 67 64 23 42 56 58 66 79 50 31 14 6 8 10 8 7 6 6 8 12 13 21 49 83 94 99 98 96 98 95 90 92 94 95 96 96 96 96 92 88 88 91 91 93 90 81 64
99 99 99 98 97 82 78 72 35 45 68 63 68 84 76 46 18 9 8 11 12 9 8 7 7 10 13 18 32 62 87 99 97 88 80 76 82 83 80 83 89 95 96 96 98 98 96 94 95 96 94 72 33 18
99 98 97 96 82 68 78 48 55 84 71 78 82 69 49 46 41 21 8 13 14 10 8 9 8 15 23 35 60 71 95 89 91 71 46 40 42 69 76 78 81 89 95 96 96 97 97 96 96 98 84 54 25 23
98 96 94 80 74 88 56 68 94 83 91 90 74 70 49 23 15 12 15 15 13 11 10 10 11 18 31 50 59 78 81 79 81 53 33 34 28 34 63 73 84 87 92 95 96 96 96 97 96 96 77 54 34 26
98 95 76 69 83 56 94 96 92 93 94 81 72 66 64 63 56 27 14 12 12 11 11 16 18 22 21 26 25 31 49 41 30 26 24 22 24 28 41 69 81 90 91 94 95 96 96 96 96 96 94 60 45 33
95 78 74 85 86 95 95 96 96 94 91 89 68 52 40 28 16 14 12 12 11 12 15 19 18 17 18 24 26 23 22 23 20 17 19 49 44 40 54 63 90 96 93 94 95 96 96 96 96 96 96 91 47 32
94 95 96 96 94 95 94 96 95 93 89 71 64 49 37 15 12 11 12 13 13 13 20 20 19 27 37 27 20 16 18 22 27 36 55 61 60 57 58 61 91 97 96 94 96 96 96 96 96 96 96 95 96 89
95 95 95 96 95 92 94 94 94 87 70 48 43 44 23 14 13 15 16 16 15 13 19 20 31 36 36 31 18 16 32 62 65 46 41 45 65 64 62 66 86 96 96 95 96 96 96 96 96 96 96 96 94 47
93 96 93 93 95 95 94 90 68 59 49 30 26 18 16 16 15 17 20 17 14 16 23 35 45 43 40 35 28 39 33 16 13 21 43 61 77 71 74 76 77 89 96 96 96 96 96 96 95 95 95 90 57 29
94 94 95 95 95 90 78 77 72 57 22 18 17 19 17 16 16 17 18 14 17 28 40 42 46 46 43 33 32 17 14 16 17 22 32 68 91 84 86 84 73 82 95 96 96 96 96 96 96 92 58 32 30 42
95 95 95 90 85 76 64 54 56 19 15 15 16 16 15 16 18 25 25 23 39 41 45 46 42 41 39 24 13 15 17 18 18 17 18 22 53 95 95 92 69 80 95 96 96 95 95 95 68 40 50 69 77 71
91 90 87 84 84 59 34 21 17 16 14 15 15 17 20 26 32 34 26 32 37 43 53 57 53 51 46 15 14 15 23 31 31 29 28 24 22 22 55 94 94 94 96 95 94 85 62 49 81 88 75 68 68 70
86 80 43 41 27 19 14 14 14 14 15 20 24 25 30 35 32 29 30 40 48 47 43 40 42 39 40 17 15 31 45 51 54 56 54 52 38 25 20 18 36 88 95 90 53 47 79 90 68 65 75 79 74 69
26 24 27 19 15 15 14 16 18 21 26 27 27 34 41 37 30 25 35 40 49 52 54 51 41 30 35 23 26 35 36 32 36 47 53 60 56 45 29 21 16 16 36 81 95 95 96 96 93 84 76 73 71 74
17 16 16 17 17 19 21 25 28 31 33 35 36 40 44 36 36 40 47 60 61 55 51 55 58 53 43 28 27 33 31 27 22 22 33 48 48 44 40 31 22 17 15 14 17 47 91 98 93 69 69 65 77 80
22 23 26 30 30 33 36 38 39 38 39 37 33 36 35 30 32 44 56 60 54 50 47 50 52 66 60 48 44 48 52 44 31 22 23 38 42 36 33 34 28 18 12 11 10 10 12 18 27 42 48 54 83 84
37 35 33 34 36 39 38 35 37 35 37 41 42 39 37 34 30 23 17 17 18 25 27 42 48 44 54 59 54 53 50 34 23 29 31 47 41 29 23 24 22 17 12 10 9 8 8 11 16 24 47 84 90 80
37 38 40 39 40 34 33 38 40 40 36 31 31 20 14 12 12 15 18 16 14 12 10 10 24 52 54 53 56 58 58 55 52 57 59 54 37 25 20 18 15 12 11 11 11 10 13 27 49 78 90 93 82 61
33 33 35 34 35 37 43 42 30 19 14 14 24 41 45 44 46 49 49 31 21 24 30 38 37 26 48 54 54 54 54 54 53 48 43 40 34 27 23 19 19 17 15 14 13 12 14 30 76 89 91 76 60 61
55 53 52 50 43 24 14 14 17 24 25 31 40 53 62 62 61 61 64 64 66 64 54 45 40 44 48 46 38 32 30 31 29 29 26 22 22 24 24 22 18 17 16 15 14 13 15 36 83 92 76 62 63 67

GFSWCAN_700_rhum_099.txt.gz
RH
96 99 99 100 98 100 97 100 100 100 64 40 6 6 5 5 4 3 3 4 6 8 10 11 9 8 10 27 26 33 72 77 80 80 99 99 100 100 90 92 94 97 89 78 77 69 75 92 94 96 93 87 72 69
96 98 100 98 97 99 99 98 99 99 63 39 6 6 6 5 5 3 3 4 5 6 12 14 14 10 11 12 27 32 69 72 72 70 81 92 100 100 96 97 87 97 91 98 91 96 82 96 97 87 94 86 83 89
96 98 99 100 99 100 100 100 100 97 86 22 7 6 6 6 5 4 3 3 6 6 10 14 20 16 12 16 18 22 51 70 70 72 77 79 84 88 98 93 91 98 88 88 85 87 89 95 96 93 94 96 95 94
96 98 99 100 98 99 99 100 99 85 84 7 7 7 6 6 6 5 4 3 5 6 9 16 18 29 26 16 15 18 23 33 57 74 76 80 84 77 94 84 72 87 82 96 90 88 88 89 94 89 96 100 92 98
96 98 99 100 98 99 99 100 100 99 27 7 7 7 7 7 7 6 5 4 4 6 8 12 16 20 26 34 34 26 20 20 27 37 64 80 80 92 80 74 80 86 94 96 98 95 96 92 95 98 93 96 96 98
95 97 99 100 100 99 99 100 100 96 38 8 8 8 8 8 8 7 10 6 4 6 8 11 10 13 10 14 24 38 43 40 30 25 37 48 71 85 96 100 90 84 91 93 89 92 91 96 95 94 93 94 94 94
96 98 99 100 100 99 99 100 99 95 18 8 8 8 9 10 12 16 28 9 4 5 7 9 9 7 5 6 14 22 37 45 49 43 35 35 42 62 91 92 90 78 81 88 91 88 90 88 96 99 99 98 99 100
96 97 99 100 100 99 99 99 99 79 20 9 8 9 11 13 23 31 38 11 7 7 8 7 7 6 5 6 11 17 32 46 56 58 60 55 55 66 89 100 95 98 92 90 90 89 91 93 96 95 91 86 85 86
97 98 99 99 99 99 99 99 93 59 16 9 9 10 14 19 35 41 44 13 11 10 11 8 4 5 5 5 9 16 38 50 59 65 73 76 88 96 90 94 100 96 96 90 89 96 100 98 100 96 88 83 82 87
98 97 99 99 99 98 99 98 89 58 15 9 9 18 22 30 46 45 47 27 14 10 8 9 4 5 6 5 9 22 46 56 90 79 86 99 100 87 94 88 71 83 87 81 76 83 93 97 96 93 92 79 86 89
97 98 99 99 99 99 99 99 92 27 10 12 25 27 17 39 49 58 44 23 13 11 10 9 6 5 6 6 8 24 43 61 98 96 100 95 100 83 92 90 85 83 74 68 69 72 68 62 70 75 85 96 95 99
97 98 99 99 99 100 100 98 72 30 32 34 32 27 29 50 62 68 41 29 10 10 11 8 6 5 5 6 8 23 48 67 87 95 98 95 79 71 85 93 88 90 92 90 79 83 91 87 81 84 85 87 86 82
97 98 98 99 99 99 99 98 54 44 39 42 24 38 48 53 69 61 37 24 10 8 8 7 6 6 6 8 8 16 46 88 84 98 100 100 84 87 86 87 86 85 86 91 95 94 90 87 84 82 78 82 85 84
98 98 98 99 99 99 98 94 58 54 59 42 50 47 56 64 68 56 49 40 12 9 8 8 7 7 7 8 10 23 58 80 98 99 95 88 86 81 77 74 73 70 74 78 81 89 95 96 88 84 84 84 85 76
98 99 99 98 99 98 97 82 80 68 65 58 52 55 62 66 55 52 50 27 10 12 11 9 9 9 9 10 16 30 59 93 98 96 81 69 54 44 41 48 61 68 67 71 78 84 92 95 98 94 92 92 86 62
98 99 98 98 98 97 95 95 87 87 59 52 67 66 75 79 75 42 37 21 14 14 13 11 9 8 12 14 27 37 66 73 70 77 76 74 69 36 26 27 32 49 59 66 73 82 92 91 96 96 95 98 88 50
98 98 98 98 98 95 96 95 92 58 64 89 77 70 84 84 81 83 57 42 19 15 13 11 9 11 14 22 35 43 41 35 57 73 76 56 27 21 16 16 22 29 59 72 77 79 90 92 94 95 96 96 92 50
99 98 98 98 96 95 95 95 67 85 94 87 70 74 87 79 47 38 20 19 26 16 13 12 12 12 12 14 15 16 22 25 34 33 24 22 20 18 17 17 27 34 46 78 88 86 90 94 95 95 96 96 96 61
97 98 98 96 96 94 92 83 93 91 92 90 82 91 94 94 89 68 69 64 24 13 13 13 13 12 11 13 16 17 19 19 17 15 14 16 34 43 40 43 48 50 56 81 97 92 95 95 96 96 96 96 96 93
98 97 96 96 96 94 95 95 96 96 92 90 94 91 73 62 62 69 58 22 13 13 15 16 13 15 17 17 16 20 25 22 16 14 22 49 46 40 39 48 58 58 61 92 99 95 95 96 96 96 95 96 96 96
96 95 96 96 96 95 94 95 94 94 95 94 94 90 65 64 73 54 18 13 13 14 16 16 17 17 17 18 23 28 27 20 24 34 31 18 19 23 40 58 63 66 70 96 98 95 95 96 96 96 95 95 95 95
94 97 95 97 96 96 96 93 94 92 90 89 81 64 68 87 64 23 19 17 16 18 17 15 14 14 16 22 27 35 34 30 27 18 14 23 37 55 66 72 76 78 81 87 97 95 96 96 96 96 96 95 95 95
96 93 93 94 95 94 95 96 95 94 82 59 51 66 66 34 21 23 25 22 17 14 12 12 15 19 23 26 37 39 34 22 14 15 16 16 17 37 78 87 89 86 78 81 97 95 96 96 97 97 96 95 91 65
94 97 97 95 95 93 94 94 86 76 74 70 69 34 22 19 17 17 15 13 16 14 16 21 29 34 32 39 47 36 18 15 16 17 19 21 20 20 29 80 98 96 85 95 96 96 97 96 96 96 84 92 94 94
97 95 95 95 92 92 76 78 82 84 85 66 19 18 17 17 17 18 14 13 14 19 27 39 45 47 49 53 54 23 16 16 23 31 40 46 47 41 28 20 31 89 97 97 97 96 95 96 94 95 95 86 77 80
94 92 78 84 78 73 88 90 89 69 30 18 16 16 15 18 18 16 15 16 19 28 38 43 48 46 41 42 48 27 20 30 48 52 54 56 57 55 50 39 22 20 26 70 96 94 95 96 96 94 90 92 94 87
84 74 63 79 88 88 66 36 20 17 15 14 14 16 19 20 20 18 22 24 26 32 39 45 48 48 48 46 42 32 24 30 39 42 40 37 49 52 45 43 41 28 22 20 28 60 92 96 96 96 96 95 82 70
53 52 40 34 20 21 17 17 16 16 16 17 18 21 22 22 21 24 27 28 30 36 39 42 46 48 49 52 50 36 29 28 28 25 25 19 26 46 43 38 34 37 32 22 19 16 17 28 72 95 97 84 60 55
22 22 19 17 16 16 17 18 20 21 22 24 24 25 21 20 26 31 36 41 40 33 27 28 34 40 44 45 50 54 39 28 24 21 22 23 19 23 40 41 30 27 29 25 18 14 12 10 12 15 22 31 38 58
21 20 20 23 23 23 23 22 24 26 25 25 24 24 24 26 25 19 14 12 10 9 9 9 9 10 15 32 48 54 58 58 54 51 48 43 41 35 34 48 33 23 22 20 16 13 12 10 12 20 28 41 69 93
27 26 26 25 26 26 27 28 28 28 26 22 16 11 10 10 11 19 27 31 32 33 31 26 22 19 16 13 14 27 58 60 60 64 64 60 56 50 54 55 40 24 21 19 16 14 14 13 15 27 62 85 92 90
29 28 28 27 27 28 30 23 13 9 9 13 22 30 34 34 34 31 35 42 47 54 59 54 36 31 35 35 26 24 18 35 60 60 58 58 57 54 50 45 38 30 22 21 21 18 17 16 15 17 49 86 90 70
31 28 29 31 32 19 9 8 8 8 12 22 32 43 47 46 49 49 51 54 59 64 69 72 74 74 74 72 66 57 44 43 34 34 40 44 46 45 42 38 30 28 26 23 18 18 17 16 15 18 58 85 73 64

GFSWCAN_700_rhum_102.txt.gz
RH
27 96 99 96 100 98 97 99 99 100 100 99 60 27 28 5 4 4 4 4 6 6 6 7 7 7 11 22 19 33 69 68 78 100 98 98 98 96 87 90 85 90 82 97 79 74 96 89 92 92 98 100 82 72
26 90 92 96 99 100 99 99 99 99 99 80 71 29 11 5 4 4 3 4 4 5 6 7 8 8 8 17 20 27 63 66 66 68 81 96 100 100 96 98 85 94 86 80 88 94 89 86 90 87 90 93 89 95
22 75 95 97 98 99 96 96 99 100 100 99 51 13 6 7 5 4 3 4 4 8 8 9 11 10 10 12 16 27 50 63 64 67 70 73 98 99 96 92 85 99 91 86 84 93 88 89 90 94 96 100 98 95
19 36 93 95 98 99 93 99 99 100 100 99 52 11 14 6 7 5 4 3 5 5 7 10 12 19 18 13 14 17 21 30 44 61 68 72 77 82 100 89 86 86 85 95 97 92 91 87 92 98 99 98 93 96
17 28 87 97 98 98 97 99 99 99 99 98 59 11 9 6 6 5 5 4 4 6 6 9 9 10 16 26 28 24 20 18 19 26 36 65 72 75 91 89 99 99 96 95 99 94 93 88 92 95 99 100 99 89
15 21 84 96 97 99 100 98 99 99 99 98 14 6 10 6 6 6 14 14 4 4 7 9 7 4 4 9 16 26 32 37 35 27 25 32 43 66 78 97 98 96 95 98 94 92 87 83 86 96 96 100 96 96
16 21 82 97 97 99 99 99 98 99 99 58 8 6 7 8 7 9 11 25 21 4 6 8 9 6 4 5 10 16 25 33 39 41 38 33 33 42 79 100 98 90 92 87 85 97 92 89 83 84 94 94 94 97
16 25 67 96 98 97 98 99 99 99 98 39 17 8 11 12 8 10 24 39 38 7 7 6 7 5 4 5 8 12 21 31 41 44 50 55 52 53 92 91 100 90 100 95 98 99 92 92 93 95 92 93 90 87
16 22 77 96 98 98 98 98 99 99 94 52 13 7 9 10 12 20 33 43 50 12 9 6 4 4 4 5 6 11 22 38 43 48 55 67 81 79 57 61 79 73 79 89 95 87 90 97 100 100 99 98 95 90
16 35 95 98 98 98 98 99 100 98 94 30 8 9 11 12 18 30 40 41 46 30 15 9 5 4 5 5 6 9 22 30 54 64 65 78 89 58 71 78 83 86 76 77 87 86 77 74 74 83 94 95 92 81
24 85 97 97 97 96 98 99 99 98 67 30 12 11 12 16 31 43 50 59 42 19 14 12 8 5 6 6 6 11 17 28 84 97 85 97 93 59 73 78 84 84 82 79 75 72 70 72 76 69 57 58 64 82
48 94 98 97 96 98 98 98 99 97 81 29 10 10 14 28 49 54 70 60 44 17 12 12 8 6 6 6 6 15 20 30 82 87 90 93 60 69 75 77 78 78 77 77 82 87 89 90 85 89 79 73 74 76
60 97 97 97 98 98 98 99 98 96 49 26 9 13 26 46 51 65 63 50 53 18 10 11 8 7 7 7 7 9 18 55 60 95 84 83 67 71 73 74 75 72 70 67 68 72 77 87 93 91 90 83 75 73
97 97 97 98 89 98 99 98 97 90 57 10 13 39 60 62 57 61 66 69 58 24 9 8 7 8 7 7 7 13 34 44 97 100 99 57 74 74 68 59 51 46 46 52 61 63 68 78 90 92 94 93 84 80
97 96 98 98 97 98 98 98 96 89 25 31 52 57 60 61 58 59 58 72 66 27 9 9 10 10 9 8 8 13 25 63 79 82 52 71 69 67 62 65 60 50 32 28 34 49 60 70 79 97 99 96 98 90
98 98 98 98 98 98 98 98 91 43 45 68 71 65 62 61 61 80 90 86 51 12 12 13 12 10 9 9 10 13 22 24 37 40 52 64 70 74 72 44 20 17 13 13 21 27 54 67 74 92 100 97 96 96
98 97 97 97 98 98 98 95 91 67 76 88 84 64 61 57 58 64 79 65 44 28 13 15 12 10 12 12 14 15 14 19 25 21 26 49 46 34 21 16 16 16 14 12 17 27 39 76 81 86 97 98 96 97
98 98 93 96 98 97 96 95 88 93 96 91 77 68 80 85 94 95 75 28 28 40 20 17 15 13 11 11 12 12 11 11 12 14 17 18 16 14 14 14 18 24 31 31 34 40 50 75 88 92 96 96 96 96
88 88 96 98 98 96 95 96 97 96 94 82 72 70 77 75 89 83 75 71 54 29 33 21 14 12 11 11 10 10 10 12 14 17 19 18 15 16 31 37 34 30 31 43 50 53 58 84 94 94 96 96 96 96
98 97 98 97 96 96 95 95 96 91 86 72 66 86 83 92 94 85 50 38 52 71 46 18 14 14 13 13 12 12 13 13 16 20 21 22 24 24 20 18 17 19 30 51 60 62 81 94 99 95 96 96 96 96
97 97 97 96 96 95 95 96 95 89 84 90 95 87 92 94 90 86 81 80 81 56 23 14 15 15 15 14 13 13 14 19 26 30 28 26 22 18 27 40 46 48 54 65 71 78 97 96 96 96 96 96 96 96
97 97 96 96 95 95 95 96 95 96 96 91 90 94 94 91 80 50 50 63 65 40 20 18 17 16 14 12 12 14 21 30 36 35 27 17 16 16 19 44 64 72 79 82 83 86 98 96 96 96 96 96 96 96
96 97 96 97 94 93 97 96 95 94 95 96 96 96 96 83 70 79 79 67 42 24 21 18 14 11 11 13 17 23 30 40 40 25 15 15 17 18 17 18 44 81 90 93 89 92 97 96 96 96 96 96 96 96
96 97 96 94 94 95 95 95 94 94 94 94 95 90 70 66 78 64 38 26 19 18 14 12 12 14 16 20 24 35 45 45 26 15 15 17 26 34 34 33 22 26 71 95 98 96 97 96 96 96 96 96 96 96
96 95 94 95 95 95 95 95 95 95 91 89 70 73 71 60 32 22 21 20 15 12 12 14 17 20 24 29 38 49 52 46 18 15 20 34 51 51 50 48 45 41 26 27 78 95 96 96 96 96 96 97 96 96
92 95 94 94 92 93 93 95 94 89 85 91 93 75 41 23 19 16 14 13 12 13 15 18 24 31 34 34 41 41 42 44 28 17 31 48 50 47 48 46 41 40 44 36 25 25 53 96 96 95 95 95 96 96
93 92 90 85 88 88 90 92 94 94 94 76 45 21 15 14 13 15 15 16 17 18 21 27 34 35 32 32 34 38 45 44 38 27 34 42 39 31 34 38 44 40 32 37 38 29 24 23 42 87 96 97 97 96
89 92 93 94 95 95 94 94 83 46 26 18 16 14 14 15 17 18 19 22 21 20 22 28 29 28 27 33 36 40 41 46 46 37 30 29 37 37 35 33 31 40 41 28 29 30 25 20 17 17 22 39 62 65
93 92 94 88 78 40 35 23 17 16 15 14 15 17 18 20 22 22 21 20 22 16 8 6 7 7 8 8 10 15 33 42 44 49 49 39 31 30 26 26 36 39 42 39 24 24 22 17 14 12 14 17 22 30
51 32 20 17 16 16 16 16 16 16 16 17 16 16 19 23 19 12 8 8 9 10 11 15 19 23 26 28 27 23 17 15 29 39 46 54 58 54 52 50 44 43 47 50 27 22 20 16 15 14 18 32 57 82
20 20 19 19 18 17 17 17 17 18 19 18 13 8 7 7 9 14 22 29 34 36 35 36 37 37 40 45 46 37 27 24 21 16 18 39 53 53 53 53 54 51 54 55 36 23 22 20 18 16 16 24 55 88
25 22 18 16 19 21 21 21 12 7 7 9 14 18 18 20 26 29 36 40 43 45 46 48 52 61 65 68 66 62 58 59 61 50 33 24 32 54 59 55 53 53 52 48 39 28 22 20 20 18 16 17 38 84
22 21 22 24 24 17 7 6 6 7 7 8 8 7 10 13 23 35 43 48 53 60 68 73 74 78 80 78 75 70 67 65 62 60 62 57 40 40 46 51 53 52 50 45 36 30 26 22 20 19 17 17 40 76